SWR12E EDDC-EDDH

Flight info

Callsign SWR12E
Flight time 0h 42m
Altitude 28000
Route OSKAN9E OSKAN M748 RARUP RARUP3D
Aircraft A320/M-SDE3FGHIRWY/LB1

Departure

Time 2026-05-01 11:52
Airport Dresden Airport (EDDC)

Arrival

Time 2026-05-01 12:35
Airport Hamburg Helmut Schmidt Airport (EDDH)
Time Latitude Longitude Altitude Speed Heading
2026-05-01 11:39 51.12633 13.76394 754 ft 0 kts 130°
2026-05-01 11:45 51.12641 13.76379 750 ft 2 kts 130°
2026-05-01 11:45 51.12653 13.76362 749 ft 2 kts 182°
2026-05-01 11:45 51.12663 13.76366 750 ft 0 kts 222°
2026-05-01 11:49 51.12638 13.76322 750 ft 14 kts 229°
2026-05-01 11:49 51.12538 13.76178 756 ft 21 kts 220°
2026-05-01 11:49 51.12533 13.76068 757 ft 11 kts 322°
2026-05-01 11:49 51.12613 13.75993 752 ft 15 kts 314°
2026-05-01 11:50 51.12617 13.75986 756 ft 0 kts 314°
2026-05-01 11:50 51.12618 13.75986 756 ft 1 kts 314°
2026-05-01 11:51 51.12657 13.75912 757 ft 18 kts 320°
2026-05-01 11:51 51.12764 13.75877 756 ft 19 kts 34°
2026-05-01 11:51 51.12976 13.76165 748 ft 75 kts 40°
2026-05-01 11:51 51.13549 13.76944 731 ft 139 kts 41°
2026-05-01 11:52 51.14373 13.78028 1085 ft 156 kts 37°
2026-05-01 11:52 51.15236 13.79053 1821 ft 154 kts 33°
2026-05-01 11:52 51.16111 13.80081 2479 ft 159 kts 40°
2026-05-01 11:52 51.16960 13.81315 3098 ft 169 kts 43°
2026-05-01 11:53 51.17830 13.82611 3728 ft 173 kts 42°
2026-05-01 11:53 51.18758 13.83919 4345 ft 184 kts 36°
2026-05-01 11:53 51.19974 13.84718 4971 ft 196 kts
2026-05-01 11:53 51.21360 13.84645 5605 ft 202 kts 357°
2026-05-01 11:54 51.22766 13.84414 6276 ft 205 kts 357°
2026-05-01 11:54 51.24193 13.84173 6942 ft 207 kts 358°
2026-05-01 11:54 51.25634 13.83930 7577 ft 209 kts 358°
2026-05-01 11:54 51.27085 13.83684 8225 ft 211 kts 358°
2026-05-01 11:55 51.28548 13.83434 8886 ft 212 kts 358°
2026-05-01 11:55 51.30020 13.83149 9565 ft 215 kts 354°
2026-05-01 11:55 51.31473 13.82471 10251 ft 220 kts 342°
2026-05-01 11:55 51.32837 13.81310 10881 ft 225 kts 330°
2026-05-01 11:56 51.34063 13.79725 11505 ft 228 kts 324°
2026-05-01 11:56 51.35250 13.78050 12160 ft 226 kts 324°
2026-05-01 11:56 51.36408 13.76418 12939 ft 217 kts 325°
2026-05-01 11:56 51.37513 13.74858 13734 ft 205 kts 326°
2026-05-01 11:57 51.38538 13.73401 14494 ft 188 kts 327°
2026-05-01 11:57 51.39446 13.72097 15180 ft 162 kts 328°
2026-05-01 11:57 51.40328 13.70851 15344 ft 184 kts 329°
2026-05-01 11:57 51.41341 13.69511 15761 ft 180 kts 329°
2026-05-01 11:58 51.42235 13.68314 16415 ft 171 kts 330°
2026-05-01 11:58 51.43327 13.66967 16032 ft 222 kts 331°
2026-05-01 11:58 51.45419 13.64434 17789 ft 172 kts 332°
2026-05-01 11:59 51.46537 13.63146 17435 ft 216 kts 333°
2026-05-01 11:59 51.47706 13.61858 18285 ft 188 kts 334°
2026-05-01 11:59 51.48718 13.60718 18973 ft 177 kts 334°
2026-05-01 12:00 51.51351 13.57436 18027 ft 294 kts 316°
2026-05-01 12:00 51.52784 13.54835 18141 ft 328 kts 315°
2026-05-01 12:00 51.56035 13.48889 18790 ft 376 kts 315°
2026-05-01 12:01 51.57820 13.45654 19126 ft 396 kts 315°
2026-05-01 12:01 51.59691 13.42282 19462 ft 412 kts 315°
2026-05-01 12:01 51.61637 13.38786 19802 ft 425 kts 315°
2026-05-01 12:01 51.63630 13.35209 20142 ft 434 kts 315°
2026-05-01 12:02 51.65737 13.31690 20488 ft 439 kts 320°
2026-05-01 12:02 51.68012 13.28368 20834 ft 442 kts 326°
2026-05-01 12:02 51.70510 13.25452 21189 ft 446 kts 328°
2026-05-01 12:02 51.73045 13.22527 21547 ft 450 kts 328°
2026-05-01 12:03 51.75602 13.19577 21892 ft 453 kts 327°
2026-05-01 12:03 51.78168 13.16617 22258 ft 456 kts 327°
2026-05-01 12:03 51.80665 13.13410 22624 ft 461 kts 321°
2026-05-01 12:03 51.83063 13.09949 23002 ft 463 kts 321°
2026-05-01 12:04 51.85475 13.06458 23384 ft 465 kts 321°
2026-05-01 12:04 51.87885 13.02965 23769 ft 466 kts 321°
2026-05-01 12:04 51.90301 12.99453 24126 ft 467 kts 321°
2026-05-01 12:04 51.92723 12.95928 24452 ft 468 kts 321°
2026-05-01 12:05 51.95147 12.92395 24786 ft 469 kts 321°
2026-05-01 12:05 51.99994 12.85311 25455 ft 469 kts 320°
2026-05-01 12:05 52.02383 12.81811 25780 ft 469 kts 320°
2026-05-01 12:06 52.04813 12.78251 25952 ft 473 kts 320°
2026-05-01 12:06 52.07268 12.74657 25990 ft 478 kts 320°
2026-05-01 12:06 52.09749 12.71016 25987 ft 483 kts 320°
2026-05-01 12:06 52.12204 12.67403 25988 ft 486 kts 320°
2026-05-01 12:07 52.14742 12.63658 25987 ft 488 kts 320°
2026-05-01 12:07 52.17262 12.59930 25988 ft 490 kts 320°
2026-05-01 12:07 52.19782 12.56197 25987 ft 491 kts 320°
2026-05-01 12:07 52.22311 12.52451 25987 ft 491 kts 320°
2026-05-01 12:08 52.24843 12.48698 25985 ft 492 kts 320°
2026-05-01 12:08 52.27346 12.44878 25984 ft 493 kts 318°
2026-05-01 12:08 52.29765 12.40903 25984 ft 494 kts 315°
2026-05-01 12:08 52.32118 12.36800 25986 ft 495 kts 314°
2026-05-01 12:09 52.34521 12.32783 25982 ft 494 kts 318°
2026-05-01 12:09 52.37008 12.28976 25983 ft 494 kts 319°
2026-05-01 12:09 52.39556 12.25191 25986 ft 494 kts 320°
2026-05-01 12:09 52.42130 12.21465 25985 ft 494 kts 320°
2026-05-01 12:10 52.44724 12.17762 25980 ft 494 kts 320°
2026-05-01 12:10 52.49889 12.10402 25978 ft 495 kts 320°
2026-05-01 12:10 52.52478 12.06683 25980 ft 495 kts 320°
2026-05-01 12:11 52.57647 11.99178 25979 ft 496 kts 320°
2026-05-01 12:11 52.60227 11.95406 25984 ft 496 kts 319°
2026-05-01 12:11 52.62804 11.91632 25984 ft 496 kts 319°
2026-05-01 12:12 52.65416 11.87928 25977 ft 496 kts 321°
2026-05-01 12:12 52.68103 11.84380 25975 ft 496 kts 323°
2026-05-01 12:12 52.70852 11.80946 25982 ft 496 kts 324°
2026-05-01 12:12 52.73628 11.77565 25980 ft 496 kts 325°
2026-05-01 12:13 52.76414 11.74177 25982 ft 496 kts 324°
2026-05-01 12:13 52.79182 11.70766 25980 ft 496 kts 324°
2026-05-01 12:13 52.81890 11.67365 25971 ft 482 kts 323°
2026-05-01 12:13 52.84510 11.64018 25983 ft 470 kts 323°
2026-05-01 12:14 52.87070 11.60718 25977 ft 463 kts 323°
2026-05-01 12:14 52.89588 11.57460 25980 ft 456 kts 323°
2026-05-01 12:14 52.92082 11.54236 25978 ft 452 kts 323°
2026-05-01 12:14 52.94547 11.51056 25977 ft 447 kts 323°
2026-05-01 12:15 52.97001 11.47903 25977 ft 444 kts 323°
2026-05-01 12:15 52.99440 11.44776 25891 ft 443 kts 323°
2026-05-01 12:15 53.01909 11.41607 25227 ft 456 kts 323°
2026-05-01 12:15 53.04455 11.38336 24426 ft 469 kts 323°
2026-05-01 12:16 53.07063 11.34984 23602 ft 478 kts 323°
2026-05-01 12:16 53.09590 11.31731 22751 ft 484 kts 323°
2026-05-01 12:16 53.12340 11.28194 22227 ft 482 kts 323°
2026-05-01 12:16 53.15026 11.24880 21809 ft 479 kts 325°
2026-05-01 12:17 53.17746 11.21702 21413 ft 476 kts 326°
2026-05-01 12:17 53.20485 11.18614 21041 ft 474 kts 327°
2026-05-01 12:17 53.23218 11.15570 20690 ft 471 kts 327°
2026-05-01 12:17 53.25932 11.12525 20374 ft 469 kts 326°
2026-05-01 12:18 53.28542 11.09285 20061 ft 467 kts 317°
2026-05-01 12:18 53.30765 11.05320 19756 ft 466 kts 312°
2026-05-01 12:18 53.32916 11.01275 19481 ft 465 kts 312°
2026-05-01 12:18 53.35049 10.97231 19220 ft 463 kts 312°
2026-05-01 12:19 53.37196 10.93145 19453 ft 468 kts 311°
2026-05-01 12:19 53.39345 10.89041 19865 ft 469 kts 311°
2026-05-01 12:19 53.41500 10.84923 20229 ft 471 kts 311°
2026-05-01 12:19 53.43658 10.80799 20018 ft 466 kts 311°
2026-05-01 12:20 53.45824 10.76753 18309 ft 464 kts 313°
2026-05-01 12:20 53.47952 10.72821 17013 ft 442 kts 312°
2026-05-01 12:20 53.49958 10.69102 16246 ft 417 kts 311°
2026-05-01 12:20 53.51816 10.65493 15702 ft 403 kts 310°
2026-05-01 12:21 53.53602 10.61926 15112 ft 397 kts 309°
2026-05-01 12:21 53.55370 10.58383 14542 ft 395 kts 309°
2026-05-01 12:21 53.57148 10.54855 13958 ft 395 kts 309°
2026-05-01 12:21 53.58934 10.51354 13335 ft 393 kts 310°
2026-05-01 12:22 53.60693 10.47935 12723 ft 390 kts 310°
2026-05-01 12:22 53.61893 10.45613 12313 ft 388 kts 310°
2026-05-01 12:22 53.64227 10.41096 11579 ft 383 kts 310°
2026-05-01 12:22 53.65963 10.37725 11086 ft 379 kts 310°
2026-05-01 12:23 53.67681 10.34377 10554 ft 376 kts 310°
2026-05-01 12:23 53.69385 10.31057 10008 ft 373 kts 310°
2026-05-01 12:23 53.71072 10.27769 9437 ft 368 kts 310°
2026-05-01 12:23 53.72732 10.24525 8950 ft 360 kts 310°
2026-05-01 12:24 53.74350 10.21356 8390 ft 348 kts 310°
2026-05-01 12:24 53.75883 10.18350 7897 ft 328 kts 310°
2026-05-01 12:24 53.77335 10.15499 7410 ft 312 kts 309°
2026-05-01 12:24 53.78717 10.12780 6933 ft 298 kts 309°
2026-05-01 12:25 53.80040 10.10164 6419 ft 288 kts 309°
2026-05-01 12:25 53.82604 10.05104 5547 ft 282 kts 309°
2026-05-01 12:25 53.83445 10.03443 5214 ft 279 kts 309°
2026-05-01 12:26 53.84703 10.00954 4709 ft 280 kts 309°
2026-05-01 12:26 53.87252 9.95915 3680 ft 282 kts 310°
2026-05-01 12:26 53.88655 9.93604 3177 ft 282 kts 321°
2026-05-01 12:27 53.90227 9.91754 2990 ft 270 kts 324°
2026-05-01 12:27 53.91942 9.86507 2982 ft 261 kts 267°
2026-05-01 12:28 53.90544 9.81099 2978 ft 245 kts 220°
2026-05-01 12:28 53.89198 9.79671 2968 ft 214 kts 198°
2026-05-01 12:28 53.86542 9.79376 3018 ft 178 kts 165°
2026-05-01 12:29 53.85425 9.80132 3006 ft 172 kts 152°
2026-05-01 12:29 53.84371 9.81052 2986 ft 170 kts 152°
2026-05-01 12:29 53.82299 9.82861 2997 ft 170 kts 152°
2026-05-01 12:30 53.80197 9.84696 2979 ft 168 kts 152°
2026-05-01 12:30 53.79158 9.85600 2954 ft 168 kts 152°
2026-05-01 12:30 53.78119 9.86507 2812 ft 167 kts 152°
2026-05-01 12:31 53.77081 9.87413 2611 ft 171 kts 152°
2026-05-01 12:31 53.76033 9.88326 2395 ft 166 kts 152°
2026-05-01 12:31 53.75005 9.89219 2164 ft 166 kts 153°
2026-05-01 12:31 53.73983 9.90106 1972 ft 166 kts 153°
2026-05-01 12:32 53.72957 9.90997 1729 ft 168 kts 152°
2026-05-01 12:32 53.70915 9.92772 1286 ft 164 kts 152°
2026-05-01 12:32 53.69895 9.93659 1072 ft 165 kts 152°
2026-05-01 12:33 53.68877 9.94541 846 ft 166 kts 152°
2026-05-01 12:33 53.67847 9.95434 633 ft 166 kts 152°
2026-05-01 12:33 53.66821 9.96323 411 ft 165 kts 152°
2026-05-01 12:33 53.65791 9.97215 197 ft 168 kts 152°
2026-05-01 12:34 53.64762 9.98106 42 ft 159 kts 152°
2026-05-01 12:34 53.63967 9.98796 41 ft 75 kts 153°
2026-05-01 12:34 53.63567 9.99126 44 ft 55 kts 153°
2026-05-01 12:34 53.63244 9.99420 45 ft 55 kts 152°
2026-05-01 12:35 53.62998 9.99642 46 ft 12 kts 152°
2026-05-01 12:35 53.62895 9.99734 47 ft 23 kts 152°
2026-05-01 12:35 53.62822 9.99874 48 ft 0 kts 73°
2026-05-01 12:36 53.62823 9.99875 48 ft 0 kts 72°
2026-05-01 12:36 53.62826 9.99894 45 ft 8 kts 71°
2026-05-01 12:36 53.62897 10.00036 46 ft 20 kts
2026-05-01 12:36 53.63029 10.00128 45 ft 22 kts 39°
2026-05-01 12:37 53.63133 10.00199 43 ft 15 kts 358°
2026-05-01 12:37 53.63205 10.00186 43 ft 8 kts 356°
2026-05-01 12:37 53.63251 10.00206 44 ft 6 kts 31°
2026-05-01 12:37 53.63285 10.00235 46 ft 5 kts 10°
2026-05-01 12:38 53.63316 10.00240 46 ft 4 kts 17°
2026-05-01 12:38 53.63327 10.00269 45 ft 2 kts 72°
2026-05-01 12:38 53.63329 10.00290 46 ft 1 kts 83°
2026-05-01 12:38 53.63330 10.00303 46 ft 2 kts 85°
2026-05-01 12:39 53.63331 10.00338 46 ft 3 kts 89°
2026-05-01 12:39 53.63332 10.00363 46 ft 2 kts 83°
2026-05-01 12:39 53.63333 10.00364 46 ft 0 kts 83°